Satellite: ISS
Catalog number: 25544
Epoch time:      10126.72202001
Element set:     103
Inclination:      051.6446 deg
RA of node:       083.3867 deg
Eccentricity:    0.0009651
Arg of perigee:   282.3663 deg
Mean anomaly:     141.3713 deg
Mean motion:   15.73727181 rev/day
Decay rate:     2.3462e-04 rev/day^2
Epoch rev:           65694
Checksum:              276

Satellite: CO-58
Catalog number: 28895
Epoch time:      10125.62441332
Element set:     575
Inclination:      098.0209 deg
RA of node:       011.4979 deg
Eccentricity:    0.0019001
Arg of perigee:   060.5741 deg
Mean anomaly:     299.7342 deg
Mean motion:   14.59885243 rev/day
Decay rate:       2.58e-06 rev/day^2
Epoch rev:           24077
Checksum:              319

Satellite: FALCON
Catalog number: 30776
Epoch time:      10126.78225945
Element set:     821
Inclination:      035.4343 deg
RA of node:       295.6670 deg
Eccentricity:    0.0002028
Arg of perigee:   233.1826 deg
Mean anomaly:     126.8709 deg
Mean motion:   15.03637892 rev/day
Decay rate:       7.91e-06 rev/day^2
Epoch rev:           17382
Checksum:              304

Satellite: MAST
Catalog number: 31126
Epoch time:      10125.61238337
Element set:     857
Inclination:      097.9410 deg
RA of node:       169.8167 deg
Eccentricity:    0.0094545
Arg of perigee:   359.2665 deg
Mean anomaly:     000.8380 deg
Mean motion:   14.53581314 rev/day
Decay rate:        5.7e-07 rev/day^2
Epoch rev:           16187
Checksum:              305

Satellite: CAPE1
Catalog number: 31130
Epoch time:      10125.82952505
Element set:    0879
Inclination:      097.9429 deg
RA of node:       167.5162 deg
Eccentricity:    0.0103088
Arg of perigee:   006.3724 deg
Mean anomaly:     353.8737 deg
Mean motion:   14.52171289 rev/day
Decay rate:       2.50e-06 rev/day^2
Epoch rev:           16151
Checksum:              294

Satellite: COMPASS
Catalog number: 32787
Epoch time:      10126.30421048
Element set:     664
Inclination:      097.8962 deg
RA of node:       191.6316 deg
Eccentricity:    0.0017021
Arg of perigee:   063.7209 deg
Mean anomaly:     296.5748 deg
Mean motion:   14.81853573 rev/day
Decay rate:       7.72e-06 rev/day^2
Epoch rev:           10929
Checksum:              313

Satellite: AAUSAT2
Catalog number: 32788
Epoch time:      10126.17625239
Element set:     657
Inclination:      097.8961 deg
RA of node:       191.6240 deg
Eccentricity:    0.0016631
Arg of perigee:   064.9482 deg
Mean anomaly:     295.3421 deg
Mean motion:   14.81994910 rev/day
Decay rate:       8.11e-06 rev/day^2
Epoch rev:           10928
Checksum:              317

Satellite: DO-64
Catalog number: 32789
Epoch time:      10125.91891584
Element set:     673
Inclination:      097.9030 deg
RA of node:       191.7962 deg
Eccentricity:    0.0016774
Arg of perigee:   065.0172 deg
Mean anomaly:     295.2760 deg
Mean motion:   14.82115909 rev/day
Decay rate:      1.145e-05 rev/day^2
Epoch rev:           10924
Checksum:              325

Satellite: CO-66
Catalog number: 32791
Epoch time:      10126.18503621
Element set:     655
Inclination:      097.8972 deg
RA of node:       191.5336 deg
Eccentricity:    0.0017370
Arg of perigee:   061.8040 deg
Mean anomaly:     298.4888 deg
Mean motion:   14.81641738 rev/day
Decay rate:       3.64e-06 rev/day^2
Epoch rev:           10923
Checksum:              321

Satellite: RS-30
Catalog number: 32953
Epoch time:      10126.75772503
Element set:     666
Inclination:      082.5022 deg
RA of node:       055.4373 deg
Eccentricity:    0.0017926
Arg of perigee:   189.2097 deg
Mean anomaly:     170.8657 deg
Mean motion:   12.43005032 rev/day
Decay rate:        1.0e-07 rev/day^2
Epoch rev:            8859
Checksum:              292

Satellite: TACSAT-3
Catalog number: 35001
Epoch time:      10126.39347033
Element set:     280
Inclination:      040.4527 deg
RA of node:       105.0961 deg
Eccentricity:    0.0020898
Arg of perigee:   048.5049 deg
Mean anomaly:     311.7555 deg
Mean motion:   15.41445208 rev/day
Decay rate:      9.430e-05 rev/day^2
Epoch rev:            5418
Checksum:              269

Satellite: PHARMSAT
Catalog number: 35002
Epoch time:      10125.32573709
Element set:     264
Inclination:      040.4682 deg
RA of node:       109.6656 deg
Eccentricity:    0.0024043
Arg of perigee:   044.9242 deg
Mean anomaly:     315.3521 deg
Mean motion:   15.41993201 rev/day
Decay rate:      9.211e-05 rev/day^2
Epoch rev:            5403
Checksum:              250

Satellite: HAWKSAT1
Catalog number: 35003
Epoch time:      10126.35050343
Element set:     282
Inclination:      040.4562 deg
RA of node:       099.4670 deg
Eccentricity:    0.0021563
Arg of perigee:   063.8014 deg
Mean anomaly:     296.5013 deg
Mean motion:   15.44755201 rev/day
Decay rate:     1.8237e-04 rev/day^2
Epoch rev:            5424
Checksum:              255

Satellite: CP6
Catalog number: 35004
Epoch time:      10126.23908027
Element set:     277
Inclination:      040.4603 deg
RA of node:       099.5017 deg
Eccentricity:    0.0020755
Arg of perigee:   065.0602 deg
Mean anomaly:     295.2332 deg
Mean motion:   15.45453668 rev/day
Decay rate:     2.1758e-04 rev/day^2
Epoch rev:            5422
Checksum:              277

